Preview of NWS' New Version of Forecast
This preview is not operational and should not be used for support decisions.

Regional Weather Roundup (RWR)

Issued by National Weather Service (NWS)

                            
000
ASUS43 KMKX 201200
RWRWI 

WISCONSIN REGIONAL WEATHER ROUNDUP
NATIONAL WEATHER SERVICE MILWAUKEE/SULLIVAN WI
700 AM CDT TUE AUG 20 2019

NOTE: "FAIR" INDICATES FEW OR NO CLOUDS BELOW 12,000 FEET WITH NO
SIGNIFICANT WEATHER AND/OR OBSTRUCTIONS TO VISIBILITY.

WIZ001-002-006>008-014>016-023>028-201300-
NORTHWEST WISCONSIN
  
CITY           SKY/WX    TMP DP  RH WIND       PRES   REMARKS
SUPERIOR ARPT  FAIR      53  53  99 CALM      29.87S                  
6HR MIN TEMP:  53; 6HR MAX TEMP:  62;                                

ASHLAND        FAIR      57  56  96 CALM      29.90R                  
6HR MIN TEMP:  56; 6HR MAX TEMP:  64;                                

HAYWARD        FAIR      53  50  89 CALM      29.95R                  
6HR MIN TEMP:  50; 6HR MAX TEMP:  55;                                

SIREN          FAIR      62  59  91 S3        29.92R                  
6HR MIN TEMP:  58; 6HR MAX TEMP:  64;                                

CUMBERLAND     FAIR      55  54  94 SE5       29.94S                  
RICE LAKE      FAIR      58  41  54 SE3       29.95S                  
6HR MIN TEMP:  55; 6HR MAX TEMP:  58;                                

CHETEK         FAIR      57  57  97 CALM      29.95R                  
LADYSMITH      FAIR      57  56  96 SE3       29.97S                  
6HR MIN TEMP:  55; 6HR MAX TEMP:  57;                                

EAU CLAIRE     NOT AVBL                                               
MENOMONIE      FAIR      55  54  97 E3        29.94S                  
6HR MIN TEMP:  51; 6HR MAX TEMP:  56;                                

NEW RICHMOND   FAIR      59  58  95 S3        29.93R                  
OSCEOLA        FAIR      60  60 100 SE7       29.93S                  
$$
 
WIZ003>005-009-010-017-018-201300-
NORTH CENTRAL WISCONSIN
  
CITY           SKY/WX    TMP DP  RH WIND       PRES   REMARKS
MANITOWISH WTR FAIR      50  50 100 CALM      29.97R                  
6HR MIN TEMP:  48; 6HR MAX TEMP:  53;                                

ARBOR VITAE    FAIR      52  49  89 CALM      29.96R                  
WOODRUFF       FAIR      52  49  89 CALM      29.96R                  
RHINELANDER    FAIR      54  51  90 CALM      29.98S                  
6HR MIN TEMP:  50; 6HR MAX TEMP:  57;                                

EAGLE RIVER    FAIR      48  48 100 CALM      29.95F                  
LAND O LAKES   FAIR      49  49 100 CALM      30.00R                  
6HR MIN TEMP:  47; 6HR MAX TEMP:  52;                                

PHILLIPS       FAIR      55  55 100 S3        29.96R                  
6HR MIN TEMP:  51; 6HR MAX TEMP:  55;                                

TOMAHAWK       FAIR      46  45  97 CALM      29.99R                  
MEDFORD        FAIR      53  52  97 S5        29.98R                  
6HR MIN TEMP:  49; 6HR MAX TEMP:  53;                                

MERRILL        FAIR      48  48 100 CALM      29.99R                  
6HR MIN TEMP:  45; 6HR MAX TEMP:  51;                                

$$
 
WIZ029-030-035-036-043>047-201300-
CENTRAL WISCONSIN
  
CITY           SKY/WX    TMP DP  RH WIND       PRES   REMARKS
WAUSAU         FAIR      54  53  97 SE3       29.98S                  
6HR MIN TEMP:  50; 6HR MAX TEMP:  57;                                

MOSINEE        CLEAR     54  54 100 CALM      29.99F                  
MARSHFIELD     FAIR      57  53  86 CALM      29.96S                  
6HR MIN TEMP:  54; 6HR MAX TEMP:  58;                                

STEVENS POINT  FAIR      51  51 100 CALM      29.98F                  
6HR MIN TEMP:  47; 6HR MAX TEMP:  52;                                

WAUPACA        FAIR      55  55  97 CALM      30.00S                  
6HR MIN TEMP:  53; 6HR MAX TEMP:  57;                                

WAUTOMA        FAIR      55  54  96 CALM      29.99R                  
6HR MIN TEMP:  51; 6HR MAX TEMP:  56;                                

WISC RAPIDS    FAIR      56  53  90 CALM      29.98R                  
6HR MIN TEMP:  53; 6HR MAX TEMP:  57;                                

CAMP DOUGLAS   FAIR      55  55 100 E3        29.99R                  
6HR MIN TEMP:  50; 6HR MAX TEMP:  55;                                

$$
 
WIZ011>013-019>022-031-037>040-048>050-201300-
NORTHEAST WISCONSIN
  
CITY           SKY/WX    TMP DP  RH WIND       PRES   REMARKS
ANTIGO         FAIR      50  50 100 CALM      30.00S                  
6HR MIN TEMP:  47; 6HR MAX TEMP:  52;                                

SHAWANO        FAIR      56  55  97 CALM      30.00S                  
6HR MIN TEMP:  53; 6HR MAX TEMP:  59;                                

OCONTO         FAIR      52  52  98 CALM      29.99R                  
6HR MIN TEMP:  49; 6HR MAX TEMP:  54;                                

STURGEON BAY   FAIR      58  57  97 S3        30.01S                  
6HR MIN TEMP:  57; 6HR MAX TEMP:  63;                                

GREEN BAY      FAIR      58  57  97 CALM      30.01R                  
6HR MIN TEMP:  55; 6HR MAX TEMP:  60;                                

MANITOWOC      FAIR      56  56 100 CALM      30.02R                  
6HR MIN TEMP:  53; 6HR MAX TEMP:  60;                                

APPLETON       PTCLDY    61  59  94 CALM      29.99S                  
CLINTONVILLE   FAIR      53  51  90 CALM      29.99S                  
6HR MIN TEMP:  50; 6HR MAX TEMP:  56;                                

OSHKOSH        FAIR      60  57  89 S5        30.00R                  
6HR MIN TEMP:  56; 6HR MAX TEMP:  63;                                

$$
 
WIZ032>034-041-042-053>061-201300-
SOUTHWEST WISCONSIN
  
CITY           SKY/WX    TMP DP  RH WIND       PRES   REMARKS
LA CROSSE      FAIR      61  57  87 SE7       29.96F                  
6HR MIN TEMP:  60; 6HR MAX TEMP:  64;                                

SPARTA         FAIR      50  50 100 CALM      29.98F                  
VIROQUA        FAIR      62  61  99 SE7       30.01F                  
6HR MIN TEMP:  59; 6HR MAX TEMP:  63;                                

BOSCOBEL       CLOUDY    63  61  93 CALM      30.01R FOG              
6HR MIN TEMP:  58; 6HR MAX TEMP:  63;                                

PRAIRIE DU CHI FAIR      64  62  94 E5        29.99R                  
PLATTEVILLE    FAIR      65  65 100 E3        30.02R                  
6HR MIN TEMP:  62; 6HR MAX TEMP:  66;                                

$$

WIZ056-057-062-063-064-067-068-201300-
SOUTH CENTRAL WISCONSIN
  
CITY           SKY/WX    TMP DP  RH WIND       PRES   REMARKS
REEDSBURG      FAIR      58  58 100 CALM      30.00R                  
6HR MIN TEMP:  55; 6HR MAX TEMP:  59;                                

BARABOO/DELLS  FAIR      58  57  96 CALM      30.00S                  
6HR MIN TEMP:  56; 6HR MAX TEMP:  59;                                

LONE ROCK      MOCLDY    61  61 100 CALM      30.01R                  
6HR MIN TEMP:  60; 6HR MAX TEMP:  61;                                

MINERAL POINT    N/A     66  64  94 CALM      30.01S                  
MADISON        CLOUDY    66  60  81 SE3       29.99R                  
6HR MIN TEMP:  58; 6HR MAX TEMP:  66;                                

MIDDLETON      FAIR      60  27  28 CALM      30.00R                  
WATERTOWN      FAIR      63  63 100 E6        29.99R                  
MONROE         FAIR      65  63  92 E3        29.99R                  
JANESVILLE     CLOUDY    66  66 100 CALM      29.98S FOG              
$$
 
WIZ051-052-058>065-066-070>072-201300-
SOUTHEAST WISCONSIN
  
CITY           SKY/WX    TMP DP  RH WIND       PRES   REMARKS
MILWAUKEE      FOG       72  70  93 E3        30.01R VSB 1/2          
6HR MIN TEMP:  69; 6HR MAX TEMP:  72;                                

WAUKESHA       FOG       66  66 100 E3        30.03R VSB 1/8          
MILWAUKEE/TIMM FOG       68  64  88 CALM      30.02R VSB 1            
RACINE         MOCLDY    72  70  93 CALM      30.02R FOG              
6HR MIN TEMP:  69; 6HR MAX TEMP:  72;                                

KENOSHA        FOG       72  72 100 NE5       30.00R VSB<1/4          
6HR MIN TEMP:  68; 6HR MAX TEMP:  72;                                

FOND DU LAC    FAIR      61  58  90 CALM      30.00R                  
6HR MIN TEMP:  58; 6HR MAX TEMP:  61;                                

SHEBOYGAN      FOG       60  59  96 CALM      30.01R VSB 1/4          
6HR MIN TEMP:  53; 6HR MAX TEMP:  60;                                

WEST BEND      FOG       61  61 100 CALM      30.03R VSB<1/4          
JUNEAU         FAIR      60  58  92 CALM      30.01R                  
6HR MIN TEMP:  59; 6HR MAX TEMP:  62;                                

$$

LSZ147-162-201300-
LAKE SUPERIOR
  
STATION/POSITION TIME  TEMP    WIND        PRES    WAVE
                       AIR SEA DIR/SP/G            HT/PER
                 (UTC) (F)     (DEG/KT/KT) (MB)    (FT/S)
W MID LAKE BUOY  1050   65 63  210/  8/  8 1011.4F   2/ 4
DEVILS ISLAND    1100   66     160/  5/  5 1011.8F
SAXON HARBOR     1140   61     190/  2/  2 1012.5R
$$
 
LMZ867-665-643>646-201300-
LAKE MICHIGAN
  
STATION/POSITION TIME  TEMP    WIND        PRES    WAVE
                       AIR SEA DIR/SP/G            HT/PER
                 (UTC) (F)     (DEG/KT/KT) (MB)    (FT/S)
S GREEN BAY BUOY 1130   72 70  160/  6/  6 1015.7F
N MID LAKE BUOY  1140   69 69  200/  4/  6 1015.5F
NORTHPORT PIER   1140   63     200/  2/  3 1014.6F
KEWAUNEE LAKESHO 1130   58     310/  2/  5 1015.2S
SHEBOYGAN LAKESH 1100   65      10/  2/  3 1015.8F
PORT WASHINGTON  1140   67     260/  2/  3 1017.3R
S MID LAKE BUOY  1140   73 74   70/ 10/ 14 1015.8R
KENOSHA   LAKESH 1100   72      10/  6/ 10 1015.6
$$

TC  - TEMPERATURE IN CELSIUS
VSB - VISIBILITY IN STATUTE MILES
WCI - WIND CHILL INDEX
HX  - HEAT INDEX